Location: Kellogg
(38.0159°N, 90.0546°W)
Time: 20:04:24
(UTC+00:00)

Transit 4A - Pass Details

Date: 18 September 2024
Orbit: 865 x 978 km, 66.8° (Epoch: 11 October)

Event Time Altitude Azimuth Distance (km) Brightness Sun altitude
Rises 17:37:46 0° 328° (NNW) 3,618 10.7 53.3°
Reaches altitude 10° 17:40:19 10° 324° (NW) 2,684 10.1 53.3°
Maximum altitude 17:46:28 60° 247° (WSW) 1,102 9.4 53.4°
Drops below altitude 10° 17:52:43 10° 169° (S) 2,714 11.1 53.4°
Sets 17:55:18 0° 166° (SSE) 3,660 11.6 53.4°
